sat.trackr.live / text

‹ back to catalog

KUIPER-00505

NORAD 68886 · 2026-095Y

PAYLOAD ACTIVE UNKNOWN

§ Identity

Operator
Country
US
Launch date
2026-04-28
Launch site
AFETR
Launch vehicle
Mass (kg)
RCS (m²)

External: N2YO · Heavens-Above · Gunter

§ Orbital elements

Epoch: 2026-05-24T22:34:58.392768Z

Period
93.77 min
Inclination
51.8818°
Eccentricity
0.0004587
Mean motion
15.35668234 rev/d
Perigee alt
455.8 km
Apogee alt
462.1 km
Semi-major
6,837.1 km
B*
-7.5210e-3
RAAN
354.7364°
Arg perigee
197.2816°
Mean anomaly
162.8014°
Rev number
415

§ Raw data

KUIPER-005051 68886U 26095Y   26144.94095362 -.00256590  00000+0 -75210-2 0  99982 68886  51.8818 354.7364 0004587 197.2816 162.8014 15.35668234  4154

JSON: /api/v1/satellites/68886 · /tle

For live sub-satellite position, see the globe view (requires WebGL).

§ Visibility from observer

Set your observer location to see the next 7 days of passes ≥ 10°. The values pass through the URL so the page stays shareable.

No JS? Fill the form by hand. The geolocation button needs JavaScript.